sat.trackr.live / text

‹ back to catalog

STARLINK-3166

NORAD 51462 · 2022-010G

PAYLOAD ACTIVE UNKNOWN

§ Identity

Operator
Country
US
Launch date
2022-02-03
Launch site
AFETR
Launch vehicle
Mass (kg)
RCS (m²)

Purposes: comms

External: N2YO · Heavens-Above · Gunter

§ Orbital elements

Epoch: 2026-09-20T03:45:47.896704Z

Period
94.01 min
Inclination
53.1592°
Eccentricity
0.0001282
Mean motion
15.31701120 rev/d
Perigee alt
469.9 km
Apogee alt
471.6 km
Semi-major
6,848.9 km
B*
3.1098e-5
RAAN
110.4921°
Arg perigee
94.2237°
Mean anomaly
265.8911°
Rev number
25,639

§ Raw data

STARLINK-31661 51462U 22010G   26263.15680436  .00000600  00000+0  31098-4 0  99952 51462  53.1592 110.4921 0001282  94.2237 265.8911 15.31701120256391

JSON: /api/v1/satellites/51462 · /tle

For live sub-satellite position, see the globe view (requires WebGL).

§ Visibility from observer

Set your observer location to see the next 7 days of passes ≥ 10°. The values pass through the URL so the page stays shareable.

No JS? Fill the form by hand. The geolocation button needs JavaScript.